Terug naar catalogus

EKRAN 15

ActiefCommunicatieGEO
NORAD 16729·PAYLOAD·🇷🇺 Russia

Gelanceerd May 24, 1986 vanaf Baikonur Cosmodrome

Loading…

TLE

VersSource: Space-Track

Epoch: Sep 13, 2026, 17:37 UTC

1 16729U 86038A   26256.73418787 -.00000069  00000-0  00000-0 0  9992
2 16729  11.3131 321.7943 0009200 352.9965  15.3509  0.96545601119219

Volg EKRAN 15 in realtime met AllMySat

Download on the App Store